[[{"header":{"parameterUnit":"m.s-1","parameterCategory":1,"la1":30.2992,"la2":30.254,"lo1":-89.0895,"lo2":-89.0443,"dy":0.0025,"dx":0.0025,"nx":19,"ny":19,"refTime":"2026-04-16T03:00:00:Z","depth":0,"parameterNumber":2,"parameterNumberName":"U-component_of_WINDS"},"data":[0,0,0,-0.3979,-0.3979,-0.3997,-0.3997,-0.4021,-0.4021,0,0,0,0,0,0,0,0,0,0,0,-0.3973,-0.3973,-0.3979,-0.3979,-0.3997,-0.3997,-0.4021,-0.4021,0,0,0,0,0,0,0,0,0,0,0,-0.3973,-0.3973,-0.3973,-0.3979,-0.3997,-0.3997,-0.4021,-0.4007,0,0,0,0,0,0,0,0,0,0,-0.399,-0.3983,-0.3973,-0.3973,-0.3979,-0.3997,-0.3997,-0.4007,-0.4008,-0.4013,0,-0.4016,0,-0.4019,-0.4023,-0.4023,0,0,0,-0.398,-0.3982,-0.3988,-0.3973,-0.3979,-0.3997,-0.3989,-0.4008,-0.4009,-0.4015,-0.4016,-0.4017,-0.4019,-0.4023,-0.4023,-0.4047,-0.4047,0,0,-0.3979,-0.3976,-0.3986,-0.3989,-0.3985,-0.3989,-0.399,-0.4009,-0.401,-0.4017,-0.4018,-0.402,-0.4023,-0.4023,-0.4047,-0.4047,0,0,0,-0.3975,-0.3975,-0.398,-0.3988,-0.3991,-0.3989,-0.399,-0.401,-0.4011,-0.4018,-0.402,-0.4023,-0.4024,-0.4047,-0.4047,-0.4048,0,0,0,-0.3975,-0.3973,-0.398,-0.3978,-0.399,-0.4,-0.3991,-0.401,-0.4012,-0.402,-0.4023,-0.4024,-0.4047,-0.4047,-0.4048,-0.405,0,0,0,-0.3972,-0.3973,-0.3975,-0.3978,-0.3985,-0.4,-0.4003,-0.4011,-0.4013,-0.4023,-0.4024,-0.4047,-0.4047,-0.4048,-0.4049,-0.4056,0,0,0,-0.3968,-0.3976,-0.3975,-0.3985,-0.3985,-0.4,-0.4003,-0.4014,-0.4022,-0.4023,-0.4047,-0.4047,-0.4048,-0.4049,-0.4055,-0.4061,-0.4063,0,0,-0.3976,-0.3977,-0.3983,-0.3983,-0.3997,-0.3998,-0.4013,-0.4023,-0.4027,-0.404,-0.4041,-0.4048,-0.4049,-0.4056,-0.4073,-0.4074,0,0,0,-0.3985,-0.3989,-0.3993,-0.4001,-0.4009,-0.4017,-0.4025,-0.403,-0.4041,-0.4033,-0.4052,-0.4053,-0.4057,-0.4059,-0.4061,-0.4065,-0.4048,-0.4048,-0.4048,-0.3993,-0.3997,-0.4008,-0.4015,-0.4022,-0.4031,-0.4038,-0.4046,-0.4048,-0.4052,-0.4057,-0.4066,-0.4069,-0.407,-0.4074,-0.4059,-0.4059,-0.4059,-0.4059,-0.4006,-0.4013,-0.4016,-0.4028,-0.4033,-0.4043,-0.4053,-0.4055,-0.4066,-0.4063,-0.4067,-0.4064,-0.4072,-0.4076,-0.4059,-0.4059,-0.4059,-0.4059,-0.4059,-0.4012,-0.4016,-0.4021,-0.4033,-0.4043,-0.405,-0.406,-0.4065,-0.4069,-0.4073,-0.4078,-0.4078,-0.4079,-0.4075,-0.4075,-0.4075,-0.4075,-0.4075,-0.4075,-0.4017,-0.4022,-0.403,-0.404,-0.4046,-0.4055,-0.4065,-0.4072,-0.408,-0.4083,-0.4083,-0.4085,-0.4071,-0.4068,-0.4076,-0.4075,-0.4075,-0.4075,-0.4075,-0.4029,-0.4027,-0.4039,-0.4046,-0.4059,-0.4068,-0.4074,-0.4087,-0.4093,-0.4099,-0.4101,-0.4089,-0.409,-0.4089,-0.4087,-0.4099,-0.4099,-0.4099,-0.4099,-0.4035,-0.4036,-0.405,-0.406,-0.407,-0.4076,-0.4092,-0.4101,-0.411,-0.4114,-0.4113,-0.411,-0.4109,-0.411,-0.4109,-0.4107,-0.4124,-0.4124,-0.4124,-0.4043,-0.4046,-0.4057,-0.4065,-0.4076,-0.4086,-0.4101,-0.4113,-0.4123,-0.4125,-0.4118,-0.4117,-0.4112,-0.411,-0.4112,-0.4109,-0.4105,0,0]},{"header":{"parameterUnit":"m.s-1","parameterCategory":1,"la1":30.2992,"la2":30.254,"lo1":-89.0895,"lo2":-89.0443,"dy":0.0025,"dx":0.0025,"nx":19,"ny":19,"refTime":"2026-04-16T03:00:00:Z","depth":0,"parameterNumber":3,"parameterNumberName":"V-component_of_WINDS"},"data":[0,0,0,2.9023,2.9027,2.9222,2.9222,2.9464,2.9466,0,0,0,0,0,0,0,0,0,0,0,2.8962,2.8963,2.9022,2.9027,2.9222,2.9222,2.9464,2.9466,0,0,0,0,0,0,0,0,0,0,0,2.8961,2.8963,2.8965,2.9028,2.9221,2.9223,2.9463,2.9319,0,0,0,0,0,0,0,0,0,0,2.9131,2.9072,2.8962,2.8965,2.9029,2.9221,2.9223,2.9312,2.9328,2.9373,0,2.9413,0,2.9444,2.9482,2.9483,0,0,0,2.9029,2.9059,2.9114,2.8965,2.9031,2.9221,2.9134,2.9321,2.9339,2.9394,2.9417,2.9426,2.9448,2.9483,2.9485,2.9738,2.9739,0,0,2.9019,2.8995,2.9101,2.9125,2.9096,2.9128,2.914,2.9332,2.9355,2.9418,2.9432,2.9452,2.9485,2.9487,2.9737,2.9738,0,0,0,2.8986,2.8987,2.9038,2.9115,2.9151,2.9134,2.9148,2.9346,2.9365,2.9434,2.9454,2.9486,2.9489,2.9736,2.9737,2.9765,0,0,0,2.898,2.8969,2.9033,2.9021,2.9147,2.9251,2.9158,2.9352,2.9374,2.9453,2.9486,2.9492,2.9735,2.9737,2.9762,2.9782,0,0,0,2.895,2.8965,2.8992,2.9019,2.9102,2.9249,2.9279,2.9357,2.9386,2.9483,2.9492,2.9734,2.9736,2.9759,2.9777,2.9839,0,0,0,2.8912,2.9016,2.8992,2.9117,2.91,2.9265,2.9278,2.9402,2.9488,2.9488,2.9735,2.9737,2.9758,2.9774,2.9836,2.9885,2.9904,0,0,2.903,2.903,2.9105,2.9089,2.9251,2.9237,2.9404,2.9507,2.9538,2.9669,2.9676,2.9763,2.9777,2.9838,3.0023,3.0038,0,0,0,2.9134,2.9187,2.9235,2.9316,2.9396,2.9465,2.9545,2.9582,2.9694,2.9601,2.9804,2.9813,2.985,2.9874,2.9887,2.9919,2.9748,2.9748,2.9748,2.9267,2.93,2.9425,2.9481,2.9559,2.9638,2.9704,2.9767,2.978,2.9827,2.9866,2.9973,3.0001,3.0011,3.0044,2.9896,2.9897,2.9897,2.9897,2.9442,2.9521,2.9532,2.9657,2.9691,2.9796,2.9876,2.988,2.9982,2.9948,2.9982,2.994,3.0026,3.0056,2.9899,2.9899,2.9899,2.9898,2.9898,2.9531,2.9574,2.9617,2.9735,2.9822,2.9875,2.9971,3.0,3.0027,3.0061,3.0102,3.0102,3.0103,3.0079,3.008,3.008,3.008,3.008,3.0081,2.9605,2.9652,2.973,2.9821,2.9875,2.9949,3.0028,3.0082,3.0148,3.0161,3.0161,3.0166,3.003,2.9993,3.0087,3.0086,3.0085,3.0084,3.0084,2.9765,2.9733,2.9852,2.9906,3.0013,3.0096,3.0131,3.0236,3.0285,3.033,3.0329,3.0224,3.0225,3.0215,3.0185,3.0323,3.0323,3.0323,3.0323,2.9838,2.9841,2.9968,3.0051,3.0136,3.0178,3.0309,3.0371,3.0429,3.046,3.0445,3.0408,3.0397,3.0405,3.0391,3.0363,3.0543,3.0543,3.0543,2.9937,2.9949,3.0056,3.0112,3.0197,3.027,3.0393,3.0487,3.0547,3.0553,3.0485,3.0475,3.0416,3.0396,3.0399,3.0376,3.0325,0,0]}]]